{"data":{"norad_id":62496,"epoch":"2026-05-25T04:20:21.233184Z","epoch_age_seconds":69963,"freshness":"FRESH","line1":"1 62496U 25003K   26145.18080131  .00019443  00000+0  71373-3 0  9991","line2":"2 62496  43.0003 216.6689 0001335 256.4301 103.6402 15.27602031 78255","mean_motion":15.27602031,"eccentricity":0.0001335,"inclination_deg":43.0003,"raan_deg":216.6689,"arg_perigee_deg":256.4301,"mean_anomaly_deg":103.6402,"bstar":0.00071373,"rev_number":7825,"period_min":94.265389203322,"perigee_km":482.06716855578,"apogee_km":483.89908762998,"semimajor_km":6861.1201280929,"source":"CELESTRAK","updated_at":"2026-05-25T13:38:19.698016Z"}}